Terminal Aerodrome Forecast
Issued by NWS

Home | Current Version | Previous Version | Text Only | Print | Product List | Glossary On
Versions: 1 2 3 4 5 6 7 8 9 10 11 12 13 14 15 16 17 18 19 20 21 22 23 24 25 26 27 28 29 30 31
118
FTUS41 KOKX 220539
TAFTEB
TAF
KTEB 220539Z 2206/2312 33008KT P6SM SCT250
     FM220700 33004KT P6SM FEW250
     FM221400 31006KT P6SM SKC
     FM221700 30008G15KT P6SM FEW060
     FM222200 16007KT P6SM FEW060
     FM230100 VRB04KT P6SM SKC=

USA.gov is the U.S. government's official web portal to all federal, state and local government web resources and services.